| time (UTC) | temp F | wind direction | speed MPH | gust MPH | rain 1hr in | rain 24hr in | rain mn in | humidity % | barometer mb |
| 20260509175113 | 70 | 43 | 4.0 | 12.0 | 0.00 | 0.00 | 0.00 | 80 | 950.6 |
| 20260509174612 | 70 | 44 | 3.0 | 12.0 | 0.00 | 0.00 | 0.00 | 80 | 950.5 |
| 20260509173555 | 70 | 29 | 4.0 | 12.0 | 0.00 | 0.00 | 0.00 | 78 | 950.6 |
| 20260509173054 | 69 | 32 | 2.0 | 12.0 | 0.00 | 0.00 | 0.00 | 79 | 950.5 |
| 20260509172553 | 69 | 24 | 3.0 | 12.0 | 0.00 | 0.00 | 0.00 | 79 | 950.6 |
| 20260509172052 | 69 | 357 | 2.0 | 12.0 | 0.00 | 0.00 | 0.00 | 79 | 951.0 |
| 20260509171551 | 68 | 8 | 2.0 | 12.0 | 0.00 | 0.00 | 0.00 | 79 | 950.5 |
| 20260509171051 | 68 | 25 | 2.0 | 12.0 | 0.00 | 0.00 | 0.00 | 79 | 950.6 |
| 20260509170549 | 68 | 21 | 2.0 | 12.0 | 0.00 | 0.00 | 0.00 | 79 | 950.6 |
| 20260509170049 | 68 | 22 | 3.0 | 12.0 | 0.00 | 0.00 | 0.00 | 80 | 950.4 |
| 20260509165547 | 67 | 19 | 3.0 | 12.0 | 0.00 | 0.00 | 0.00 | 81 | 950.6 |
| 20260509165047 | 67 | 20 | 3.0 | 12.0 | 0.00 | 0.00 | 0.00 | 81 | 950.0 |
| 20260509164545 | 67 | 15 | 4.0 | 12.0 | 0.00 | 0.00 | 0.00 | 80 | 950.2 |
| 20260509164044 | 67 | 23 | 3.0 | 12.0 | 0.00 | 0.00 | 0.00 | 80 | 950.1 |
| 20260509163543 | 67 | 20 | 3.0 | 12.0 | 0.00 | 0.00 | 0.00 | 79 | 949.7 |
| 20260509163042 | 67 | 10 | 2.0 | 12.0 | 0.00 | 0.00 | 0.00 | 80 | 949.9 |
| 20260509162541 | 66 | 25 | 3.0 | 12.0 | 0.00 | 0.00 | 0.00 | 80 | 950.0 |
| 20260509161019 | 66 | 18 | 2.0 | 12.0 | 0.00 | 0.00 | 0.00 | 81 | 949.8 |
| 20260509160517 | 66 | 16 | 2.0 | 12.0 | 0.00 | 0.00 | 0.00 | 81 | 949.8 |
| 20260509160017 | 66 | 18 | 2.0 | 12.0 | 0.00 | 0.00 | 0.00 | 82 | 949.4 |
| 20260509154959 | 65 | 20 | 2.0 | 12.0 | 0.00 | 0.00 | 0.00 | 85 | 949.7 |
| 20260509154457 | 65 | 19 | 3.0 | 12.0 | 0.00 | 0.00 | 0.00 | 85 | 949.4 |
| 20260509153956 | 64 | 20 | 3.0 | 12.0 | 0.00 | 0.00 | 0.00 | 87 | 949.8 |
| 20260509153455 | 64 | 23 | 2.0 | 12.0 | 0.00 | 0.00 | 0.00 | 89 | 949.6 |
| 20260509152438 | 64 | 31 | 3.0 | 12.0 | 0.00 | 0.00 | 0.00 | 89 | 949.2 |
| 20260509151937 | 64 | 17 | 2.0 | 12.0 | 0.00 | 0.00 | 0.00 | 90 | 949.4 |
| 20260509150920 | 64 | 29 | 4.0 | 12.0 | 0.00 | 0.00 | 0.00 | 90 | 949.5 |
| 20260509150419 | 64 | 31 | 3.0 | 12.0 | 0.00 | 0.00 | 0.00 | 91 | 949.5 |
| 20260509145918 | 64 | 28 | 3.0 | 12.0 | 0.00 | 0.00 | 0.00 | 91 | 949.3 |
| 20260509145417 | 64 | 27 | 3.0 | 12.0 | 0.00 | 0.00 | 0.00 | 91 | 949.2 |
| 20260509144915 | 64 | 28 | 3.0 | 12.0 | 0.00 | 0.00 | 0.00 | 91 | 949.1 |
| 20260509143858 | 65 | 25 | 4.0 | 12.0 | 0.00 | 0.00 | 0.00 | 91 | 949.3 |
| 20260509143358 | 65 | 24 | 2.0 | 12.0 | 0.00 | 0.00 | 0.00 | 91 | 948.9 |
| 20260509142856 | 65 | 7 | 2.0 | 12.0 | 0.00 | 0.00 | 0.00 | 91 | 949.0 |
| 20260509142355 | 65 | 18 | 2.0 | 12.0 | 0.00 | 0.00 | 0.00 | 91 | 949.3 |
| 20260509141854 | 65 | 14 | 1.0 | 12.0 | 0.00 | 0.00 | 0.00 | 91 | 949.1 |
| 20260509141353 | 65 | 8 | 2.0 | 12.0 | 0.00 | 0.00 | 0.00 | 91 | 949.3 |
| 20260509140852 | 65 | 17 | 2.0 | 12.0 | 0.00 | 0.00 | 0.00 | 90 | 949.3 |
| 20260509140352 | 65 | 18 | 3.0 | 12.0 | 0.00 | 0.00 | 0.00 | 90 | 949.1 |
| 20260509135332 | 65 | 20 | 3.0 | 12.0 | 0.00 | 0.00 | 0.00 | 90 | 949.4 |
| 20260509134832 | 65 | 31 | 3.0 | 12.0 | 0.00 | 0.00 | 0.00 | 89 | 949.5 |
| 20260509134331 | 65 | 23 | 1.0 | 12.0 | 0.00 | 0.00 | 0.00 | 90 | 949.1 |
| 20260509133830 | 65 | 20 | 3.0 | 12.0 | 0.00 | 0.00 | 0.00 | 91 | 949.2 |
| 20260509133329 | 65 | 22 | 2.0 | 12.0 | 0.00 | 0.00 | 0.00 | 91 | 949.1 |
| 20260509132828 | 65 | 18 | 3.0 | 12.0 | 0.00 | 0.00 | 0.00 | 91 | 949.6 |
| 20260509132327 | 65 | 20 | 2.0 | 12.0 | 0.00 | 0.00 | 0.00 | 92 | 949.2 |
| 20260509131826 | 65 | 13 | 3.0 | 12.0 | 0.00 | 0.00 | 0.00 | 92 | 949.1 |
| 20260509131325 | 65 | 22 | 3.0 | 12.0 | 0.00 | 0.00 | 0.00 | 92 | 949.1 |
| 20260509130824 | 65 | 27 | 3.0 | 12.0 | 0.00 | 0.00 | 0.00 | 92 | 949.1 |
| 20260509130323 | 65 | 38 | 2.0 | 12.0 | 0.00 | 0.00 | 0.00 | 92 | 949.1 |
| 20260509125822 | 65 | 28 | 3.0 | 12.0 | 0.00 | 0.00 | 0.00 | 92 | 949.6 |
| 20260509124805 | 65 | 35 | 2.0 | 12.0 | 0.00 | 0.00 | 0.00 | 91 | 949.4 |
| 20260509124304 | 65 | 31 | 2.0 | 12.0 | 0.00 | 0.00 | 0.00 | 91 | 949.6 |
| 20260509123247 | 65 | 18 | 4.0 | 12.0 | 0.00 | 0.00 | 0.00 | 91 | 949.9 |
| 20260509122746 | 65 | 15 | 3.0 | 12.0 | 0.00 | 0.00 | 0.00 | 92 | 949.2 |
| 20260509122245 | 65 | 15 | 3.0 | 12.0 | 0.00 | 0.00 | 0.00 | 92 | 949.4 |
| 20260509121744 | 65 | 21 | 3.0 | 12.0 | 0.00 | 0.00 | 0.00 | 92 | 949.4 |
| 20260509121243 | 65 | 24 | 3.0 | 12.0 | 0.00 | 0.00 | 0.00 | 91 | 949.6 |
| 20260509120742 | 65 | 18 | 3.0 | 12.0 | 0.00 | 0.00 | 0.00 | 91 | 949.6 |
| 20260509120240 | 65 | 14 | 3.0 | 12.0 | 0.00 | 0.00 | 0.00 | 92 | 949.6 |
| 20260509115739 | 65 | 21 | 2.0 | 12.0 | 0.00 | 0.00 | 0.00 | 92 | 949.9 |
| 20260509115238 | 65 | 21 | 2.0 | 12.0 | 0.00 | 0.00 | 0.00 | 93 | 949.9 |
| 20260509114737 | 65 | 28 | 0.0 | 12.0 | 0.00 | 0.00 | 0.00 | 93 | 950.1 |
| 20260509114236 | 65 | 23 | 2.0 | 12.0 | 0.00 | 0.00 | 0.00 | 93 | 950.0 |
| 20260509113735 | 65 | 24 | 1.0 | 12.0 | 0.00 | 0.00 | 0.00 | 93 | 950.2 |
| 20260509113234 | 65 | 24 | 1.0 | 12.0 | 0.00 | 0.00 | 0.00 | 93 | 950.2 |
| 20260509112733 | 65 | 29 | 2.0 | 12.0 | 0.00 | 0.00 | 0.00 | 93 | 950.2 |
| 20260509112232 | 65 | 33 | 2.0 | 12.0 | 0.00 | 0.00 | 0.00 | 93 | 950.0 |
| 20260509111731 | 65 | 44 | 2.0 | 12.0 | 0.00 | 0.00 | 0.00 | 93 | 950.3 |
| 20260509111230 | 65 | 37 | 3.0 | 12.0 | 0.00 | 0.00 | 0.00 | 93 | 950.2 |
| 20260509110729 | 65 | 61 | 2.0 | 12.0 | 0.00 | 0.00 | 0.00 | 92 | 950.1 |
| 20260509110227 | 65 | 44 | 3.0 | 12.0 | 0.00 | 0.00 | 0.00 | 91 | 950.0 |
| 20260509105726 | 66 | 41 | 4.0 | 12.0 | 0.00 | 0.00 | 0.00 | 92 | 950.2 |
| 20260509105225 | 66 | 60 | 3.0 | 12.0 | 0.00 | 0.00 | 0.00 | 92 | 950.0 |
| 20260509104724 | 66 | 44 | 4.0 | 12.0 | 0.00 | 0.00 | 0.00 | 92 | 950.2 |
| 20260509104223 | 66 | 42 | 4.0 | 12.0 | 0.00 | 0.00 | 0.00 | 92 | 950.1 |
| 20260509103721 | 66 | 38 | 5.0 | 12.0 | 0.00 | 0.00 | 0.00 | 92 | 950.1 |
| 20260509102704 | 65 | 45 | 4.0 | 12.0 | 0.00 | 0.00 | 0.00 | 92 | 950.2 |
| 20260509102203 | 66 | 42 | 3.0 | 12.0 | 0.00 | 0.00 | 0.00 | 92 | 950.3 |
| 20260509101702 | 66 | 39 | 4.0 | 12.0 | 0.00 | 0.00 | 0.00 | 92 | 950.4 |
| 20260509101201 | 65 | 26 | 4.0 | 12.0 | 0.00 | 0.00 | 0.00 | 92 | 950.3 |
| 20260509100700 | 65 | 34 | 5.0 | 12.0 | 0.00 | 0.00 | 0.00 | 93 | 950.4 |
| 20260509095642 | 65 | 38 | 3.0 | 12.0 | 0.00 | 0.00 | 0.00 | 93 | 950.7 |
| 20260509095141 | 65 | 40 | 4.0 | 12.0 | 0.00 | 0.00 | 0.00 | 92 | 950.7 |
| 20260509094640 | 65 | 41 | 3.0 | 12.0 | 0.00 | 0.00 | 0.00 | 92 | 950.8 |
| 20260509094139 | 65 | 38 | 4.0 | 12.0 | 0.00 | 0.00 | 0.00 | 92 | 950.8 |
| 20260509093638 | 65 | 44 | 4.0 | 12.0 | 0.00 | 0.00 | 0.00 | 92 | 951.0 |
| 20260509093137 | 65 | 39 | 3.0 | 12.0 | 0.00 | 0.00 | 0.00 | 92 | 951.2 |
| 20260509092119 | 65 | 38 | 3.0 | 12.0 | 0.00 | 0.00 | 0.00 | 92 | 951.4 |
| 20260509091618 | 65 | 38 | 4.0 | 12.0 | 0.00 | 0.00 | 0.00 | 92 | 951.2 |
| 20260509091117 | 65 | 44 | 4.0 | 12.0 | 0.00 | 0.00 | 0.00 | 92 | 951.4 |
| 20260509090615 | 65 | 35 | 4.0 | 12.0 | 0.00 | 0.00 | 0.00 | 92 | 951.5 |
| 20260509090114 | 66 | 29 | 3.0 | 12.0 | 0.00 | 0.00 | 0.00 | 91 | 951.4 |
| 20260509085613 | 66 | 26 | 3.0 | 12.0 | 0.00 | 0.00 | 0.00 | 90 | 951.4 |
| 20260509085112 | 66 | 27 | 2.0 | 12.0 | 0.00 | 0.00 | 0.00 | 90 | 951.5 |
| 20260509084611 | 66 | 21 | 2.0 | 12.0 | 0.00 | 0.00 | 0.00 | 91 | 951.7 |
| 20260509083554 | 66 | 25 | 1.0 | 12.0 | 0.00 | 0.00 | 0.00 | 91 | 951.3 |
| 20260509083053 | 66 | 19 | 2.0 | 12.0 | 0.00 | 0.00 | 0.00 | 92 | 951.4 |
| 20260509082552 | 66 | 21 | 3.0 | 12.0 | 0.00 | 0.00 | 0.00 | 91 | 951.4 |
| 20260509082050 | 66 | 32 | 3.0 | 12.0 | 0.00 | 0.00 | 0.00 | 91 | 951.3 |
| 20260509081548 | 66 | 26 | 3.0 | 12.0 | 0.00 | 0.00 | 0.00 | 91 | 951.4 |
| 20260509081047 | 66 | 29 | 3.0 | 12.0 | 0.00 | 0.00 | 0.00 | 91 | 951.5 |
| 20260509080546 | 66 | 35 | 3.0 | 12.0 | 0.00 | 0.00 | 0.00 | 91 | 951.6 |
| 20260509080045 | 66 | 35 | 3.0 | 12.0 | 0.00 | 0.00 | 0.00 | 91 | 951.3 |
| 20260509075544 | 66 | 34 | 3.0 | 12.0 | 0.00 | 0.00 | 0.00 | 91 | 951.3 |
| 20260509075043 | 66 | 27 | 3.0 | 12.0 | 0.00 | 0.00 | 0.00 | 91 | 951.0 |
| 20260509074025 | 66 | 26 | 3.0 | 12.0 | 0.00 | 0.00 | 0.00 | 91 | 951.5 |
| 20260509073524 | 66 | 18 | 3.0 | 12.0 | 0.00 | 0.00 | 0.00 | 91 | 951.3 |
| 20260509073023 | 66 | 18 | 3.0 | 12.0 | 0.00 | 0.00 | 0.00 | 91 | 951.1 |
| 20260509072522 | 66 | 20 | 3.0 | 12.0 | 0.00 | 0.00 | 0.00 | 91 | 951.0 |
| 20260509072021 | 66 | 27 | 3.0 | 12.0 | 0.00 | 0.00 | 0.00 | 91 | 951.0 |
| 20260509071520 | 66 | 27 | 4.0 | 12.0 | 0.00 | 0.00 | 0.00 | 90 | 951.0 |
| 20260509071019 | 67 | 33 | 4.0 | 12.0 | 0.00 | 0.00 | 0.00 | 90 | 951.3 |
| 20260509070518 | 67 | 23 | 4.0 | 12.0 | 0.00 | 0.00 | 0.00 | 90 | 951.0 |
| 20260509070017 | 67 | 29 | 4.0 | 12.0 | 0.00 | 0.00 | 0.00 | 89 | 951.0 |
| 20260509065516 | 67 | 22 | 3.0 | 12.0 | 0.00 | 0.00 | 0.00 | 88 | 951.2 |
| 20260509065015 | 67 | 30 | 4.0 | 12.0 | 0.00 | 0.00 | 0.00 | 88 | 951.1 |
| 20260509064513 | 67 | 13 | 3.0 | 12.0 | 0.00 | 0.00 | 0.00 | 88 | 951.0 |
| 20260509064012 | 67 | 21 | 2.0 | 12.0 | 0.00 | 0.00 | 0.00 | 88 | 951.0 |
| 20260509061407 | 68 | 18 | 3.0 | 12.0 | 0.00 | 0.00 | 0.00 | 87 | 950.5 |
| 20260509060906 | 68 | 17 | 3.0 | 12.0 | 0.00 | 0.00 | 0.00 | 87 | 950.6 |
| 20260509060405 | 68 | 24 | 3.0 | 12.0 | 0.00 | 0.00 | 0.00 | 87 | 950.7 |
| 20260509055348 | 68 | 25 | 3.0 | 12.0 | 0.00 | 0.00 | 0.00 | 87 | 950.5 |
| 20260509054847 | 68 | 19 | 3.0 | 12.0 | 0.00 | 0.00 | 0.00 | 87 | 950.5 |
| 20260509053830 | 67 | 20 | 3.0 | 12.0 | 0.00 | 0.00 | 0.00 | 88 | 950.5 |
| 20260509053329 | 67 | 14 | 3.0 | 12.0 | 0.00 | 0.00 | 0.00 | 89 | 950.5 |
| 20260509052828 | 67 | 19 | 3.0 | 12.0 | 0.00 | 0.00 | 0.00 | 89 | 950.2 |
| 20260509052327 | 68 | 18 | 3.0 | 12.0 | 0.00 | 0.00 | 0.00 | 89 | 950.1 |
| 20260509051826 | 68 | 19 | 4.0 | 12.0 | 0.00 | 0.00 | 0.00 | 88 | 950.1 |
| 20260509051325 | 68 | 27 | 4.0 | 12.0 | 0.00 | 0.00 | 0.00 | 88 | 950.1 |
| 20260509050824 | 68 | 24 | 3.0 | 12.0 | 0.00 | 0.00 | 0.00 | 88 | 950.2 |
| 20260509050323 | 68 | 18 | 3.0 | 12.0 | 0.00 | 0.00 | 0.00 | 87 | 950.1 |
| 20260509045822 | 68 | 15 | 4.0 | 12.0 | 0.00 | 0.00 | 0.00 | 88 | 950.4 |
| 20260509045321 | 68 | 15 | 4.0 | 12.0 | 0.00 | 0.00 | 0.00 | 88 | 950.1 |
| 20260509044820 | 68 | 23 | 4.0 | 12.0 | 0.00 | 0.00 | 0.00 | 88 | 949.8 |
| 20260509044319 | 68 | 16 | 3.0 | 12.0 | 0.00 | 0.00 | 0.00 | 88 | 949.8 |
| 20260509043818 | 68 | 18 | 3.0 | 12.0 | 0.00 | 0.00 | 0.00 | 87 | 949.6 |
| 20260509043317 | 68 | 22 | 3.0 | 12.0 | 0.00 | 0.00 | 0.00 | 87 | 949.7 |
| 20260509042816 | 68 | 16 | 3.0 | 12.0 | 0.00 | 0.00 | 0.00 | 87 | 949.6 |
| 20260509042315 | 68 | 25 | 4.0 | 12.0 | 0.00 | 0.00 | 0.00 | 87 | 949.8 |
| 20260509041814 | 68 | 22 | 3.0 | 12.0 | 0.00 | 0.00 | 0.00 | 87 | 949.6 |
| 20260509041313 | 69 | 18 | 4.0 | 12.0 | 0.00 | 0.00 | 0.00 | 86 | 949.5 |
| 20260509040812 | 69 | 21 | 4.0 | 12.0 | 0.00 | 0.00 | 0.00 | 85 | 949.2 |
| 20260509040311 | 69 | 19 | 3.0 | 12.0 | 0.00 | 0.00 | 0.00 | 84 | 949.9 |
| 20260509035810 | 70 | 20 | 3.0 | 12.0 | 0.00 | 0.00 | 0.00 | 84 | 949.1 |
| 20260509035309 | 70 | 21 | 3.0 | 12.0 | 0.00 | 0.00 | 0.00 | 84 | 949.4 |
| 20260509034808 | 70 | 20 | 4.0 | 12.0 | 0.00 | 0.00 | 0.00 | 84 | 949.5 |
| 20260509034307 | 70 | 20 | 3.0 | 12.0 | 0.00 | 0.00 | 0.00 | 84 | 949.2 |
| 20260509033806 | 70 | 26 | 3.0 | 12.0 | 0.00 | 0.00 | 0.00 | 84 | 948.9 |
| 20260509033305 | 71 | 28 | 4.0 | 12.0 | 0.00 | 0.00 | 0.00 | 84 | 949.2 |
| 20260509032804 | 71 | 17 | 3.0 | 12.0 | 0.00 | 0.00 | 0.00 | 84 | 949.1 |
| 20260509032306 | 70 | 21 | 3.0 | 12.0 | 0.00 | 0.00 | 0.00 | 86 | 949.0 |
| 20260509031802 | 70 | 26 | 4.0 | 12.0 | 0.00 | 0.00 | 0.00 | 86 | 948.9 |
| 20260509030746 | 70 | 31 | 6.0 | 12.0 | 0.00 | 0.00 | 0.00 | 85 | 949.1 |
| 20260509030244 | 70 | 24 | 5.0 | 12.0 | 0.00 | 0.00 | 0.00 | 86 | 948.8 |
| 20260509025743 | 70 | 19 | 3.0 | 12.0 | 0.00 | 0.00 | 0.00 | 86 | 948.7 |
| 20260509024726 | 71 | 45 | 6.0 | 12.0 | 0.00 | 0.00 | 0.00 | 86 | 948.8 |
| 20260509024225 | 71 | 14 | 3.0 | 12.0 | 0.00 | 0.00 | 0.00 | 86 | 948.8 |
| 20260509023724 | 72 | 34 | 5.0 | 12.0 | 0.00 | 0.00 | 0.00 | 86 | 948.8 |
| 20260509023223 | 71 | 38 | 4.0 | 12.0 | 0.00 | 0.00 | 0.00 | 87 | 948.8 |
| 20260509022206 | 71 | 35 | 4.0 | 12.0 | 0.00 | 0.00 | 0.00 | 88 | 948.6 |
| 20260509021705 | 71 | 24 | 5.0 | 12.0 | 0.00 | 0.00 | 0.00 | 88 | 948.7 |
| 20260509021204 | 71 | 34 | 6.0 | 12.0 | 0.00 | 0.00 | 0.00 | 86 | 948.8 |
| 20260509020704 | 72 | 40 | 6.0 | 12.0 | 0.00 | 0.00 | 0.00 | 84 | 948.9 |
| 20260509015130 | 73 | 37 | 4.0 | 12.0 | 0.00 | 0.00 | 0.00 | 84 | 948.9 |
| 20260509014628 | 73 | 44 | 3.0 | 12.0 | 0.00 | 0.00 | 0.00 | 84 | 948.9 |
| 20260509014127 | 74 | 43 | 4.0 | 12.0 | 0.00 | 0.00 | 0.00 | 82 | 949.2 |
| 20260509013111 | 75 | 60 | 4.0 | 12.0 | 0.00 | 0.00 | 0.00 | 79 | 948.9 |
| 20260509012609 | 75 | 61 | 4.0 | 12.0 | 0.00 | 0.00 | 0.00 | 82 | 948.8 |
| 20260509012108 | 75 | 63 | 4.0 | 12.0 | 0.00 | 0.00 | 0.00 | 81 | 948.8 |
| 20260509011607 | 75 | 34 | 4.0 | 12.0 | 0.00 | 0.00 | 0.00 | 81 | 949.1 |
| 20260509011107 | 75 | 36 | 4.0 | 12.0 | 0.00 | 0.00 | 0.00 | 81 | 948.8 |
| 20260509010605 | 75 | 40 | 4.0 | 12.0 | 0.00 | 0.00 | 0.00 | 81 | 948.5 |
| 20260509010105 | 75 | 37 | 4.0 | 12.0 | 0.00 | 0.00 | 0.00 | 83 | 948.7 |
| 20260509005603 | 75 | 41 | 5.0 | 12.0 | 0.00 | 0.00 | 0.00 | 82 | 948.8 |
| 20260509005103 | 75 | 43 | 5.0 | 12.0 | 0.00 | 0.00 | 0.00 | 81 | 948.9 |
| 20260509004044 | 74 | 33 | 3.0 | 12.0 | 0.00 | 0.00 | 0.00 | 83 | 948.6 |
| 20260509003544 | 74 | 33 | 5.0 | 12.0 | 0.00 | 0.00 | 0.00 | 82 | 949.1 |
| 20260509003042 | 75 | 37 | 4.0 | 12.0 | 0.00 | 0.00 | 0.00 | 81 | 949.1 |
| 20260509002542 | 75 | 35 | 5.0 | 12.0 | 0.00 | 0.00 | 0.00 | 80 | 949.0 |
| 20260509002040 | 75 | 43 | 4.0 | 12.0 | 0.00 | 0.00 | 0.00 | 81 | 949.4 |
| 20260509001540 | 75 | 34 | 5.0 | 12.0 | 0.00 | 0.00 | 0.00 | 81 | 949.1 |
| 20260509001038 | 75 | 20 | 3.0 | 12.0 | 0.00 | 0.00 | 0.00 | 82 | 949.1 |
| 20260509000537 | 75 | 28 | 5.0 | 12.0 | 0.00 | 0.00 | 0.00 | 81 | 949.3 |
| 20260509000036 | 75 | 56 | 4.0 | 12.0 | 0.00 | 0.00 | 0.00 | 81 | 949.1 |
| 20260508235535 | 74 | 42 | 5.0 | 12.0 | 0.00 | 0.00 | 0.00 | 81 | 949.3 |
| 20260508235034 | 75 | 44 | 4.0 | 12.0 | 0.00 | 0.00 | 0.00 | 80 | 949.6 |
| 20260508234532 | 75 | 39 | 5.0 | 12.0 | 0.00 | 0.00 | 0.00 | 80 | 949.4 |
| 20260508234032 | 75 | 32 | 5.0 | 11.0 | 0.00 | 0.00 | 0.00 | 81 | 949.6 |
| 20260508233531 | 74 | 40 | 4.0 | 11.0 | 0.00 | 0.00 | 0.00 | 81 | 949.6 |
| 20260508233030 | 75 | 52 | 4.0 | 11.0 | 0.00 | 0.00 | 0.00 | 81 | 949.6 |
| 20260508232013 | 75 | 40 | 5.0 | 11.0 | 0.00 | 0.00 | 0.00 | 81 | 949.8 |
| 20260508230956 | 75 | 44 | 6.0 | 11.0 | 0.00 | 0.00 | 0.00 | 81 | 949.9 |
| 20260508230454 | 76 | 63 | 5.0 | 11.0 | 0.00 | 0.00 | 0.00 | 79 | 949.9 |
| 20260508225438 | 76 | 54 | 4.0 | 11.0 | 0.00 | 0.00 | 0.00 | 79 | 949.9 |
| 20260508224937 | 75 | 45 | 4.0 | 11.0 | 0.00 | 0.00 | 0.00 | 81 | 950.1 |
| 20260508224436 | 75 | 53 | 4.0 | 11.0 | 0.00 | 0.00 | 0.00 | 81 | 950.1 |
| 20260508223935 | 75 | 71 | 5.0 | 11.0 | 0.00 | 0.00 | 0.00 | 81 | 950.3 |
| 20260508223434 | 75 | 59 | 5.0 | 11.0 | 0.00 | 0.00 | 0.00 | 80 | 950.4 |
| 20260508222932 | 74 | 72 | 5.0 | 11.0 | 0.00 | 0.00 | 0.00 | 81 | 950.1 |
| 20260508221915 | 73 | 31 | 4.0 | 11.0 | 0.00 | 0.00 | 0.00 | 83 | 950.7 |
| 20260508221414 | 73 | 31 | 4.0 | 11.0 | 0.00 | 0.00 | 0.00 | 83 | 950.4 |
| 20260508220913 | 73 | 22 | 4.0 | 11.0 | 0.00 | 0.00 | 0.00 | 83 | 950.5 |
| 20260508215856 | 73 | 36 | 4.0 | 11.0 | 0.00 | 0.00 | 0.00 | 83 | 950.3 |
| 20260508215355 | 74 | 34 | 4.0 | 11.0 | 0.00 | 0.00 | 0.00 | 83 | 950.2 |
| 20260508214854 | 74 | 59 | 5.0 | 11.0 | 0.00 | 0.00 | 0.00 | 82 | 950.6 |
| 20260508214353 | 74 | 51 | 5.0 | 11.0 | 0.00 | 0.00 | 0.00 | 82 | 950.6 |
| 20260508213852 | 75 | 50 | 4.0 | 11.0 | 0.00 | 0.00 | 0.00 | 82 | 950.4 |
| 20260508212835 | 75 | 68 | 4.0 | 11.0 | 0.00 | 0.00 | 0.00 | 86 | 950.7 |
| 20260508212334 | 74 | 70 | 4.0 | 11.0 | 0.00 | 0.00 | 0.00 | 84 | 951.0 |
| 20260508211833 | 75 | 72 | 5.0 | 11.0 | 0.00 | 0.00 | 0.00 | 83 | 950.8 |
| 20260508211332 | 75 | 69 | 4.0 | 11.0 | 0.00 | 0.00 | 0.00 | 84 | 950.5 |
| 20260508210831 | 75 | 67 | 4.0 | 11.0 | 0.00 | 0.00 | 0.00 | 82 | 951.0 |
| 20260508205814 | 73 | 51 | 3.0 | 11.0 | 0.00 | 0.00 | 0.00 | 86 | 951.1 |
| 20260508205313 | 73 | 48 | 3.0 | 11.0 | 0.00 | 0.00 | 0.00 | 87 | 951.1 |
| 20260508204812 | 73 | 42 | 3.0 | 11.0 | 0.00 | 0.00 | 0.00 | 86 | 950.8 |
| 20260508203755 | 73 | 36 | 3.0 | 11.0 | 0.00 | 0.00 | 0.00 | 86 | 951.3 |
| 20260508202738 | 75 | 42 | 2.0 | 11.0 | 0.00 | 0.00 | 0.00 | 86 | 951.5 |
| 20260508202236 | 74 | 28 | 3.0 | 11.0 | 0.00 | 0.00 | 0.00 | 84 | 951.4 |
| 20260508201735 | 74 | 37 | 5.0 | 14.0 | 0.00 | 0.00 | 0.00 | 84 | 951.3 |
| 20260508201234 | 74 | 36 | 6.0 | 14.0 | 0.00 | 0.00 | 0.00 | 83 | 951.1 |
| 20260508200733 | 74 | 36 | 5.0 | 14.0 | 0.00 | 0.00 | 0.00 | 82 | 951.5 |
| 20260508200232 | 74 | 52 | 2.0 | 14.0 | 0.00 | 0.00 | 0.00 | 84 | 951.3 |
| 20260508195731 | 74 | 34 | 3.0 | 14.0 | 0.00 | 0.00 | 0.00 | 82 | 951.4 |
| 20260508195230 | 73 | 35 | 4.0 | 14.0 | 0.00 | 0.00 | 0.00 | 84 | 951.5 |
| 20260508192625 | 70 | 35 | 3.0 | 14.0 | 0.00 | 0.00 | 0.00 | 87 | 951.3 |
| 20260508192123 | 70 | 69 | 2.0 | 14.0 | 0.00 | 0.00 | 0.00 | 89 | 951.5 |
| 20260508191622 | 70 | 52 | 2.0 | 14.0 | 0.00 | 0.00 | 0.00 | 91 | 951.7 |
| 20260508191120 | 70 | 48 | 2.0 | 14.0 | 0.00 | 0.00 | 0.00 | 90 | 951.6 |
| 20260508190619 | 70 | 53 | 2.0 | 14.0 | 0.00 | 0.00 | 0.00 | 90 | 951.3 |
| 20260508190118 | 70 | 45 | 3.0 | 14.0 | 0.00 | 0.00 | 0.00 | 89 | 951.7 |
| 20260508185617 | 70 | 90 | 2.0 | 14.0 | 0.00 | 0.00 | 0.00 | 89 | 951.6 |
| 20260508185116 | 70 | 77 | 4.0 | 14.0 | 0.00 | 0.00 | 0.00 | 87 | 951.6 |
| 20260508184615 | 71 | 66 | 3.0 | 14.0 | 0.00 | 0.00 | 0.00 | 87 | 951.6 |
| 20260508184114 | 71 | 42 | 3.0 | 14.0 | 0.00 | 0.00 | 0.00 | 88 | 951.6 |
| 20260508183613 | 71 | 57 | 2.0 | 14.0 | 0.00 | 0.00 | 0.00 | 89 | 951.8 |
| 20260508183112 | 70 | 43 | 2.0 | 14.0 | 0.00 | 0.00 | 0.00 | 90 | 951.6 |
| 20260508182055 | 69 | 30 | 3.0 | 14.0 | 0.00 | 0.00 | 0.00 | 90 | 951.7 |
| 20260508181554 | 69 | 36 | 3.0 | 14.0 | 0.00 | 0.00 | 0.00 | 92 | 951.6 |
| 20260508181053 | 69 | 32 | 4.0 | 14.0 | 0.00 | 0.00 | 0.00 | 93 | 951.2 |
| 20260508180552 | 68 | 34 | 4.0 | 14.0 | 0.00 | 0.00 | 0.00 | 93 | 951.1 |
| 20260508180051 | 68 | 34 | 4.0 | 14.0 | 0.00 | 0.00 | 0.00 | 93 | 951.4 |